�������l�o���
Date,Time,MP-1(��Sv/h),MP-2(��Sv/h),MP-3(��Sv/h),MP-4(��Sv/h),MP-5(��Sv/h),MP-6(��Sv/h),MP-7(��Sv/h),����,����(m/s),���J
2018/09/15,00:00,0.304,0.189,0.308,0.295,0.279,0.152,0.093,��쐼,5.6,��
2018/09/15,00:10,0.308,0.188,0.303,0.294,0.281,0.151,0.092,��쐼,6.0,��
2018/09/15,00:20,0.303,0.189,0.305,0.296,0.279,0.152,0.093,��쐼,5.4,��
2018/09/15,00:30,0.306,0.188,0.305,0.295,0.281,0.152,0.093,��쐼,5.9,��
2018/09/15,00:40,0.305,0.189,0.304,0.294,0.282,0.152,0.093,��쐼,5.8,��
2018/09/15,00:50,0.304,0.187,0.307,0.296,0.279,0.152,0.094,��,5.1,��
2018/09/15,01:00,0.308,0.189,0.303,0.293,0.282,0.152,0.093,��쐼,5.5,��
2018/09/15,01:10,0.304,0.189,0.306,0.296,0.280,0.151,0.093,��쐼,5.1,��
2018/09/15,01:20,0.308,0.188,0.304,0.295,0.280,0.152,0.093,��쐼,5.9,��
2018/09/15,01:30,0.305,0.191,0.306,0.295,0.283,0.153,0.094,��쐼,5.3,��
2018/09/15,01:40,0.306,0.189,0.307,0.299,0.281,0.152,0.094,��쐼,4.7,��
2018/09/15,01:50,0.307,0.190,0.305,0.294,0.283,0.153,0.094,��쐼,5.0,��
2018/09/15,02:00,0.305,0.188,0.306,0.298,0.281,0.152,0.095,��쐼,5.6,��
2018/09/15,02:10,0.308,0.189,0.304,0.296,0.281,0.153,0.094,��쐼,6.2,��
2018/09/15,02:20,0.305,0.189,0.306,0.297,0.282,0.152,0.095,��쐼,5.1,��
2018/09/15,02:30,0.307,0.189,0.305,0.296,0.279,0.152,0.094,��쐼,5.7,��
2018/09/15,02:40,0.308,0.190,0.305,0.295,0.282,0.153,0.093,��쐼,5.8,��
2018/09/15,02:50,0.304,0.188,0.306,0.297,0.281,0.151,0.094,��쐼,4.9,��
2018/09/15,03:00,0.307,0.189,0.303,0.293,0.280,0.152,0.093,��쐼,3.4,��
2018/09/15,03:10,0.305,0.188,0.307,0.296,0.283,0.153,0.093,��쐼,3.2,��
2018/09/15,03:20,0.306,0.188,0.303,0.295,0.277,0.152,0.094,�쐼,2.2,��
2018/09/15,03:30,0.305,0.188,0.304,0.293,0.283,0.152,0.093,��쐼,4.5,��
2018/09/15,03:40,0.303,0.189,0.305,0.296,0.279,0.151,0.094,��,5.0,��
2018/09/15,03:50,0.307,0.187,0.304,0.293,0.279,0.153,0.093,��쐼,4.1,��
2018/09/15,04:00,0.304,0.189,0.306,0.297,0.282,0.152,0.094,��쐼,4.4,��
2018/09/15,04:10,0.306,0.188,0.303,0.294,0.280,0.151,0.093,��쐼,5.9,��
2018/09/15,04:20,0.305,0.189,0.306,0.295,0.281,0.153,0.093,��쐼,5.6,��
2018/09/15,04:30,0.305,0.189,0.304,0.297,0.282,0.152,0.094,��쐼,5.7,��
2018/09/15,04:40,0.307,0.188,0.303,0.294,0.280,0.152,0.093,��쐼,4.9,�L
2018/09/15,04:50,0.305,0.188,0.306,0.296,0.282,0.153,0.094,�쐼,4.6,�L
2018/09/15,05:00,0.307,0.188,0.303,0.294,0.280,0.152,0.093,�쐼,3.5,�L
2018/09/15,05:10,0.306,0.190,0.308,0.296,0.281,0.153,0.093,�쐼,2.9,�L
2018/09/15,05:20,0.305,0.189,0.304,0.295,0.281,0.151,0.094,�쐼,1.5,��
2018/09/15,05:30,0.307,0.188,0.306,0.293,0.281,0.152,0.094,��쐼,2.3,��
2018/09/15,05:40,0.304,0.189,0.305,0.295,0.282,0.152,0.094,��쐼,1.2,�L
2018/09/15,05:50,0.308,0.189,0.305,0.294,0.279,0.150,0.093,��쐼,0.7,�L
2018/09/15,06:00,0.306,0.189,0.306,0.296,0.283,0.153,0.094,-,CALM,�L
2018/09/15,06:10,0.307,0.189,0.304,0.294,0.281,0.152,0.094,���쐼,0.9,�L
2018/09/15,06:20,0.305,0.190,0.307,0.294,0.280,0.152,0.093,�쐼,2.0,�L
2018/09/15,06:30,0.304,0.187,0.304,0.294,0.282,0.152,0.094,��쐼,1.9,�L
2018/09/15,06:40,0.307,0.189,0.304,0.294,0.278,0.152,0.093,��쐼,2.0,�L
2018/09/15,06:50,0.306,0.188,0.306,0.296,0.280,0.153,0.093,-,CALM,�L
2018/09/15,07:00,0.304,0.189,0.305,0.295,0.280,0.153,0.094,��,0.9,�L
2018/09/15,07:10,0.307,0.190,0.307,0.293,0.280,0.153,0.093,��쓌,1.0,�L
2018/09/15,07:20,0.304,0.188,0.303,0.296,0.283,0.154,0.095,�쓌,0.6,�L
2018/09/15,07:30,0.308,0.189,0.305,0.293,0.281,0.152,0.094,��쓌,1.8,�L
2018/09/15,07:40,0.306,0.190,0.306,0.295,0.280,0.153,0.094,��,2.0,��
2018/09/15,07:50,0.305,0.190,0.303,0.295,0.283,0.153,0.094,��,1.8,�L
2018/09/15,08:00,0.308,0.189,0.306,0.295,0.279,0.152,0.094,��,1.9,�L
2018/09/15,08:10,0.305,0.189,0.305,0.297,0.282,0.153,0.095,��,0.9,�L
2018/09/15,08:20,0.307,0.190,0.305,0.296,0.283,0.153,0.095,��,0.6,�L
2018/09/15,08:30,0.308,0.190,0.307,0.296,0.280,0.152,0.094,-,CALM,�L
2018/09/15,08:40,0.306,0.189,0.304,0.298,0.283,0.153,0.095,��쐼,0.7,�L
2018/09/15,08:50,0.309,0.191,0.306,0.293,0.283,0.154,0.096,��,2.4,�L
2018/09/15,09:00,0.308,0.189,0.307,0.297,0.281,0.154,0.095,�k,0.8,�L
2018/09/15,09:10,0.306,0.192,0.305,0.295,0.283,0.155,0.096,��,1.4,�L
2018/09/15,09:20,0.308,0.191,0.308,0.295,0.282,0.155,0.096,���쐼,6.5,�L
2018/09/15,09:30,0.306,0.192,0.305,0.297,0.281,0.155,0.098,-,CALM,�L
2018/09/15,09:40,0.306,0.192,0.306,0.294,0.284,0.155,0.098,-,CALM,�L
2018/09/15,09:50,0.307,0.192,0.304,0.297,0.280,0.155,0.097,�쐼,2.3,�L
2018/09/15,10:00,0.304,0.193,0.304,0.294,0.282,0.154,0.097,�쐼,1.4,�L
2018/09/15,10:10,0.307,0.191,0.304,0.291,0.281,0.154,0.096,�쐼,1.4,��
2018/09/15,10:20,0.304,0.191,0.302,0.293,0.278,0.153,0.095,�쐼,0.6,�L
2018/09/15,10:30,0.304,0.191,0.301,0.291,0.281,0.153,0.095,��쐼,0.8,�L
2018/09/15,10:40,0.304,0.188,0.303,0.292,0.281,0.153,0.095,-,CALM,�L
2018/09/15,10:50,0.302,0.189,0.301,0.292,0.278,0.151,0.095,-,CALM,�L
2018/09/15,11:00,0.302,0.188,0.303,0.290,0.280,0.151,0.094,��,0.7,�L
2018/09/15,11:10,0.304,0.187,0.301,0.294,0.281,0.151,0.093,-,CALM,�L
2018/09/15,11:20,0.302,0.189,0.299,0.291,0.276,0.151,0.094,���쐼,0.7,�L
2018/09/15,11:30,0.304,0.188,0.303,0.290,0.280,0.152,0.094,-,CALM,�L
2018/09/15,11:40,0.303,0.188,0.300,0.293,0.280,0.152,0.094,-,CALM,�L
2018/09/15,11:50,0.301,0.188,0.302,0.289,0.277,0.151,0.094,-,CALM,�L
2018/09/15,12:00,0.304,0.188,0.300,0.291,0.281,0.152,0.094,-,CALM,�L
2018/09/15,12:10,0.302,0.188,0.299,0.293,0.278,0.151,0.094,-,CALM,�L
2018/09/15,12:20,0.302,0.187,0.302,0.288,0.275,0.151,0.094,��쓌,0.7,�L
2018/09/15,12:30,0.305,0.186,0.301,0.292,0.281,0.151,0.093,-,CALM,�L
2018/09/15,12:40,0.302,0.188,0.298,0.291,0.278,0.151,0.093,��쐼,1.1,��
2018/09/15,12:50,0.299,0.188,0.301,0.288,0.277,0.150,0.093,��,2.1,��
2018/09/15,13:00,0.304,0.186,0.299,0.287,0.274,0.150,0.093,��,2.5,��
2018/09/15,13:10,0.302,0.184,0.297,0.292,0.277,0.149,0.092,��,1.7,��
2018/09/15,13:20,0.300,0.183,0.297,0.289,0.279,0.149,0.092,��,1.4,��
2018/09/15,13:30,0.298,0.186,0.300,0.287,0.278,0.150,0.091,��쐼,0.8,��
2018/09/15,13:40,0.299,0.187,0.299,0.286,0.276,0.148,0.092,-,CALM,��
2018/09/15,13:50,0.298,0.186,0.297,0.290,0.275,0.148,0.091,-,CALM,��
2018/09/15,14:00,0.303,0.186,0.296,0.292,0.277,0.148,0.090,��,0.8,��
2018/09/15,14:10,0.302,0.184,0.296,0.291,0.276,0.148,0.091,�k��,1.4,��
2018/09/15,14:20,0.301,0.185,0.295,0.288,0.277,0.149,0.091,�쓌,1.7,��
2018/09/15,14:30,0.301,0.184,0.296,0.286,0.276,0.148,0.090,�쓌,1.7,��
2018/09/15,14:40,0.300,0.184,0.298,0.286,0.275,0.149,0.091,���쓌,1.1,��
2018/09/15,14:50,0.299,0.184,0.298,0.288,0.276,0.149,0.090,��,1.3,��
2018/09/15,15:00,0.298,0.184,0.298,0.293,0.276,0.149,0.092,���k��,0.8,��
2018/09/15,15:10,0.297,0.183,0.302,0.290,0.275,0.150,0.091,��,1.0,��
2018/09/15,15:20,0.300,0.186,0.301,0.289,0.275,0.150,0.091,���쓌,0.9,��
2018/09/15,15:30,0.299,0.186,0.298,0.292,0.275,0.148,0.092,���k��,0.8,��
2018/09/15,15:40,0.299,0.186,0.303,0.290,0.275,0.148,0.092,���쓌,1.1,��
2018/09/15,15:50,0.304,0.187,0.300,0.288,0.276,0.149,0.092,���쓌,1.0,��
2018/09/15,16:00,0.304,0.187,0.299,0.292,0.277,0.150,0.092,���k��,0.6,��
2018/09/15,16:10,0.301,0.186,0.300,0.291,0.276,0.151,0.092,���k��,0.9,��
2018/09/15,16:20,0.303,0.186,0.302,0.290,0.278,0.149,0.091,-,CALM,��
2018/09/15,16:30,0.304,0.187,0.298,0.293,0.276,0.149,0.092,��,1.1,��
2018/09/15,16:40,0.301,0.186,0.301,0.291,0.276,0.150,0.092,���k��,1.5,��
2018/09/15,16:50,0.303,0.188,0.300,0.290,0.277,0.150,0.091,�k��,1.6,��
2018/09/15,17:00,0.303,0.185,0.299,0.292,0.279,0.150,0.092,���k��,2.1,��
2018/09/15,17:10,0.301,0.187,0.301,0.290,0.282,0.149,0.092,�k��,2.1,��
2018/09/15,17:20,0.304,0.186,0.300,0.291,0.279,0.150,0.092,�k��,2.2,��
2018/09/15,17:30,0.301,0.185,0.299,0.294,0.280,0.149,0.091,�k��,2.2,��
2018/09/15,17:40,0.302,0.188,0.301,0.288,0.282,0.149,0.091,�k��,1.2,��
2018/09/15,17:50,0.304,0.187,0.299,0.291,0.279,0.151,0.091,���k��,1.0,��
2018/09/15,18:00,0.301,0.186,0.301,0.292,0.280,0.150,0.091,�k�k��,1.3,��
2018/09/15,18:10,0.304,0.185,0.300,0.290,0.280,0.150,0.092,�k�k��,1.2,��
2018/09/15,18:20,0.302,0.187,0.301,0.293,0.277,0.150,0.091,�k�k��,1.2,��
2018/09/15,18:30,0.300,0.187,0.301,0.290,0.281,0.150,0.092,�k�k��,1.5,��
2018/09/15,18:40,0.303,0.185,0.299,0.291,0.280,0.150,0.091,�k�k��,1.4,��
2018/09/15,18:50,0.300,0.186,0.303,0.292,0.278,0.151,0.091,�k�k��,0.8,��
2018/09/15,19:00,0.303,0.186,0.301,0.288,0.280,0.149,0.092,�k��,0.7,��
2018/09/15,19:10,0.302,0.186,0.301,0.292,0.278,0.150,0.091,�k�k��,1.1,��
2018/09/15,19:20,0.301,0.186,0.302,0.291,0.278,0.150,0.092,�k�k��,1.5,��
2018/09/15,19:30,0.302,0.186,0.299,0.291,0.281,0.149,0.092,�k�k��,2.7,��
2018/09/15,19:40,0.302,0.186,0.302,0.293,0.276,0.151,0.091,�k,2.4,��
2018/09/15,19:50,0.302,0.186,0.302,0.291,0.279,0.150,0.092,�k,3.1,��
2018/09/15,20:00,0.304,0.187,0.301,0.292,0.279,0.150,0.092,�k,2.6,��
2018/09/15,20:10,0.301,0.187,0.302,0.292,0.277,0.150,0.091,�k,3.5,��
2018/09/15,20:20,0.303,0.188,0.299,0.291,0.281,0.149,0.093,�k,2.9,��
2018/09/15,20:30,0.303,0.187,0.303,0.294,0.277,0.150,0.091,�k,2.7,��
2018/09/15,20:40,0.301,0.185,0.300,0.290,0.278,0.150,0.092,�k�k��,2.7,��
2018/09/15,20:50,0.303,0.186,0.302,0.293,0.281,0.150,0.092,�k��,1.8,��
2018/09/15,21:00,0.301,0.185,0.304,0.292,0.277,0.151,0.092,�k�k��,1.7,��
2018/09/15,21:10,0.303,0.187,0.300,0.289,0.279,0.149,0.092,�k,1.6,��
2018/09/15,21:20,0.302,0.186,0.302,0.292,0.279,0.150,0.091,�k��,0.9,��
2018/09/15,21:30,0.301,0.187,0.302,0.291,0.278,0.150,0.092,�k,1.2,��
2018/09/15,21:40,0.305,0.188,0.302,0.292,0.280,0.149,0.092,�k��,1.4,��
2018/09/15,21:50,0.303,0.186,0.302,0.293,0.279,0.150,0.092,�k�k��,1.3,��
2018/09/15,22:00,0.302,0.187,0.300,0.289,0.278,0.151,0.091,�k�k��,1.1,��
2018/09/15,22:10,0.304,0.186,0.303,0.293,0.281,0.150,0.091,�k,0.7,��
2018/09/15,22:20,0.302,0.188,0.300,0.289,0.278,0.151,0.092,�k��,0.6,��
2018/09/15,22:30,0.303,0.185,0.300,0.292,0.279,0.149,0.093,���k��,0.8,��
2018/09/15,22:40,0.302,0.186,0.302,0.293,0.280,0.150,0.090,-,CALM,��
2018/09/15,22:50,0.302,0.188,0.299,0.290,0.277,0.151,0.092,-,CALM,��
2018/09/15,23:00,0.304,0.186,0.304,0.293,0.281,0.149,0.092,-,CALM,��
2018/09/15,23:10,0.301,0.187,0.301,0.292,0.278,0.150,0.091,-,CALM,��
2018/09/15,23:20,0.303,0.187,0.301,0.292,0.278,0.149,0.092,-,CALM,��
2018/09/15,23:30,0.303,0.187,0.304,0.292,0.280,0.150,0.092,-,CALM,��
2018/09/15,23:40,0.301,0.186,0.301,0.291,0.276,0.150,0.092,�k�k��,0.9,��
2018/09/15,23:50,0.304,0.187,0.304,0.293,0.281,0.149,0.091,�k,0.7,��
